DW2671 Weather Reports


Display with metric or nautical units.
time (UTC)temp
F
wind
direction
speed
MPH
gust
MPH
rain 1hr
in
rain 24hr
in
rain mn
in
humidity
%
barometer
mb
20260507010105 58 186 1.0 6.0 0.00 0.09 0.09 97 1009.1
20260507005105 58 247 3.0 3.0 0.00 0.09 0.09 97 1009.1
20260507004106 58 232 2.0 9.0 0.01 0.09 0.09 97 1009.1
20260506235104 58 117 2.0 6.0 0.03 0.09 0.09 97 1008.8
20260506234105 58 164 2.0 6.0 0.02 0.08 0.08 97 1008.8
20260506233104 58 156 2.0 6.0 0.01 0.06 0.06 98 1008.4
20260506232104 58 197 5.0 8.0 0.01 0.06 0.06 98 1008.8
20260506230105 59 189 4.0 9.0 0.00 0.05 0.05 98 1008.8
20260506225104 59 164 5.0 7.0 0.00 0.05 0.05 98 1008.8
20260506223106 59 141 2.0 2.0 0.01 0.05 0.05 98 1008.8
20260506222103 59 174 3.0 8.0 0.01 0.05 0.05 98 1009.1
20260506221105 59 128 2.0 6.0 0.01 0.05 0.05 98 1009.1
20260506220105 59 160 5.0 8.0 0.01 0.05 0.05 98 1009.1
20260506215104 60 166 3.0 9.0 0.02 0.05 0.05 98 1009.1
20260506214103 60 154 1.0 12.0 0.03 0.05 0.05 98 1009.1
20260506213105 60 154 3.0 9.0 0.02 0.04 0.04 97 1009.4
20260506212104 60 153 5.0 8.0 0.02 0.04 0.04 97 1009.8
20260506205105 60 180 4.0 8.0 0.02 0.03 0.03 95 1009.8
20260506204106 61 123 5.0 10.0 0.01 0.02 0.02 93 1010.1
20260506202105 61 196 5.0 16.0 0.02 0.02 0.02 91 1010.5
20260506201104 61 236 3.0 7.0 0.01 0.01 0.01 91 1010.5
20260506200105 61 180 2.0 9.0 0.01 0.01 0.01 90 1010.5
20260506195104 62 214 5.0 9.0 0.01 0.01 0.01 87 1010.1
20260506194103 62 192 3.0 12.0 0.01 0.01 0.01 85 1010.5
20260506193105 63 167 2.0 6.0 0.01 0.01 0.01 83 1010.8
20260506191105 64 189 2.0 6.0 0.00 0.00 0.00 77 1011.1
20260506190103 66 176 7.0 14.0 0.00 0.00 0.00 71 1011.1
20260506183105 68 198 6.0 12.0 0.00 0.00 0.00 62 1011.1
20260506182105 69 169 7.0 14.0 0.00 0.00 0.00 61 1011.5
20260506181105 69 176 4.0 9.0 0.00 0.00 0.00 61 1011.5
20260506180105 69 175 3.0 8.0 0.00 0.00 0.00 60 1011.8
20260506175105 70 150 3.0 14.0 0.00 0.00 0.00 58 1011.8
20260506174105 71 144 5.0 16.0 0.00 0.00 0.00 56 1012.2
20260506173105 71 188 8.0 22.0 0.00 0.00 0.00 54 1012.2
20260506172104 72 174 12.0 15.0 0.00 0.00 0.00 54 1012.2
20260506171105 72 354 6.0 9.0 0.00 0.00 0.00 55 1011.8
20260506170104 72 182 6.0 9.0 0.00 0.00 0.00 55 1012.2
20260506165104 72 38 3.0 8.0 0.00 0.00 0.00 57 1012.2
20260506164104 72 184 3.0 9.0 0.00 0.00 0.00 57 1012.5
20260506162105 72 193 2.0 8.0 0.00 0.00 0.00 55 1012.8
20260506161104 72 150 5.0 12.0 0.00 0.00 0.00 54 1012.8
20260506160104 72 198 3.0 12.0 0.00 0.00 0.00 54 1012.8
20260506155105 72 180 7.0 8.0 0.00 0.00 0.00 56 1013.2
20260506154104 72 211 7.0 8.0 0.00 0.00 0.00 57 1013.2
20260506153106 72 211 3.0 7.0 0.00 0.00 0.00 58 1013.2
20260506152105 72 146 3.0 6.0 0.00 0.00 0.00 58 1013.2
20260506150104 71 138 6.0 12.0 0.00 0.00 0.00 58 1013.5
20260506145105 71 188 5.0 15.0 0.00 0.00 0.00 57 1013.5
20260506144104 70 193 6.0 12.0 0.00 0.00 0.00 59 1013.2
20260506142104 70 105 5.0 8.0 0.00 0.00 0.00 61 1013.2
20260506140106 69 160 5.0 6.0 0.00 0.00 0.00 65 1012.8
20260506135105 67 189 3.0 7.0 0.00 0.00 0.00 68 1012.8
20260506134105 67 216 5.0 6.0 0.00 0.00 0.00 70 1012.8
20260506124104 64 176 3.0 6.0 0.00 0.00 0.00 77 1013.2
20260506123105 63 196 5.0 6.0 0.00 0.00 0.00 78 1013.2
20260506122105 63 111 2.0 9.0 0.00 0.00 0.00 81 1013.2
20260506120105 61 118 3.0 3.0 0.00 0.00 0.00 85 1013.2
20260506115105 60 164 4.0 8.0 0.00 0.00 0.00 86 1013.2
20260506114104 60 159 2.0 6.0 0.00 0.00 0.00 86 1013.2
20260506111104 59 121 2.0 8.0 0.00 0.00 0.00 88 1013.2
20260506110105 59 141 3.0 8.0 0.00 0.00 0.00 89 1013.2
20260506105104 59 186 3.0 6.0 0.00 0.00 0.00 88 1013.2
20260506102105 59 90 2.0 6.0 0.00 0.00 0.00 87 1013.2
20260506101105 59 219 2.0 10.0 0.00 0.00 0.00 87 1013.2
20260506095105 59 174 2.0 3.0 0.00 0.00 0.00 86 1012.8
20260506094105 59 169 1.0 2.0 0.00 0.00 0.00 86 1012.8
20260506093105 60 225 2.0 7.0 0.00 0.00 0.00 85 1012.8
20260506092105 60 176 2.0 2.0 0.00 0.00 0.00 85 1012.8
20260506091105 60 180 5.0 6.0 0.00 0.00 0.00 84 1012.8
20260506090105 60 140 3.0 3.0 0.00 0.00 0.00 84 1013.2
20260506085105 60 258 2.0 6.0 0.00 0.00 0.00 83 1013.2
20260506084105 60 154 2.0 9.0 0.00 0.00 0.00 82 1013.2
20260506083104 61 157 2.0 6.0 0.00 0.00 0.00 82 1013.2
20260506082104 61 227 4.0 12.0 0.00 0.00 0.00 81 1013.2
20260506080104 61 137 5.0 12.0 0.00 0.00 0.00 80 1013.2
20260506073105 61 147 3.0 8.0 0.00 0.00 0.00 79 1013.2
20260506072106 61 206 1.0 6.0 0.00 0.00 0.00 79 1013.2
20260506071104 61 202 2.0 8.0 0.00 0.00 0.00 78 1013.2
20260506070107 62 196 5.0 8.0 0.00 0.00 0.00 77 1013.2
20260506062105 62 200 7.0 12.0 0.00 0.00 0.00 75 1013.2
20260506061105 62 226 4.0 7.0 0.00 0.00 0.00 75 1013.2
20260506060104 63 151 5.0 12.0 0.00 0.00 0.00 74 1013.2
20260506051104 63 161 3.0 10.0 0.00 0.00 0.00 70 1013.9
20260506050105 63 175 4.0 7.0 0.00 0.00 0.00 69 1013.5
20260506045106 63 156 5.0 8.0 0.00 0.00 0.00 69 1013.9
20260506044106 63 189 4.0 9.0 0.00 0.00 0.00 68 1013.9
20260506043105 63 190 3.0 12.0 0.00 0.00 0.00 67 1013.9
20260506042105 63 208 5.0 8.0 0.00 0.00 0.00 66 1013.9
20260506041106 63 182 6.0 12.0 0.00 0.00 0.00 66 1013.9
20260506040106 63 168 3.0 15.0 0.00 0.00 0.00 65 1013.5
20260506035105 64 179 6.0 9.0 0.00 0.00 0.00 65 1013.5
20260506034104 64 237 6.0 15.0 0.00 0.00 0.00 64 1013.5
20260506033105 64 195 3.0 9.0 0.00 0.00 0.00 64 1013.5
20260506032104 64 203 6.0 15.0 0.00 0.00 0.00 63 1013.5
20260506031105 64 190 6.0 15.0 0.00 0.00 0.00 63 1013.2
20260506030106 64 196 6.0 16.0 0.00 0.00 0.00 64 1013.5
20260506025104 63 215 6.0 15.0 0.00 0.00 0.00 65 1013.5
20260506023104 63 152 3.0 10.0 0.00 0.00 0.00 65 1013.5
20260506022104 63 142 3.0 9.0 0.00 0.00 0.00 65 1013.5
20260506021105 63 244 3.0 7.0 0.00 0.00 0.00 64 1013.5
20260506020105 63 158 5.0 12.0 0.00 0.00 0.00 64 1013.5
20260506015105 63 71 3.0 6.0 0.00 0.00 0.00 63 1013.5
20260506014104 63 232 6.0 8.0 0.00 0.00 0.00 63 1013.5
20260506012106 63 250 4.0 9.0 0.00 0.00 0.00 62 1013.5
20260506011105 64 204 3.0 8.0 0.00 0.00 0.00 61 1013.2